This demonstration page uses our WeatherBlox Daily Observations layout. Learn more.

Left ArrowRight Arrow

41.86663, -103.66717

Hourly Observations for June 7, 2022

Temp ( °F °C ) Dew Point ( °F °C ) Humidity (%) Winds ( mph kmh ) Pressure ( in mb ) Visibility ( mi km ) Precip ( " mm )
12:00 am 00:00 Cloudy 61 16.1 55 12.8 81 81 ENE 7 11 29.84 1010 10 16 0.00 0.00
12:53 am 00:53 Cloudy 60 15.6 54 12.2 80 80 N 7 11 29.86 1011 10 16 0.00 0.00
1:43 am 01:43 Mostly Cloudy 58 14.4 53 11.7 84 84 N 9 15 29.89 1012 10 16 0.00 0.00
1:53 am 01:53 Mostly Cloudy 58 14.4 53 11.7 84 84 N 8 13 29.87 1012 10 16 0.00 0.00
2:53 am 02:53 Cloudy 57 13.9 52 11.1 83 83 N 9 15 29.88 1012 10 16 0.00 0.00
3:53 am 03:53 Partly Cloudy 56 13.3 51 10.6 84 84 NNE 10 17 29.90 1013 10 16 0.00 0.00
4:53 am 04:53 Mostly Clear 56 13.3 51 10.6 84 84 NNE 10 17 29.91 1013 10 16 0.00 0.00
5:37 am 05:37 Cloudy 56 13.3 51 10.6 84 84 NNE 12 19 29.94 1014 10 16 0.00 0.00
5:53 am 05:53 Cloudy 56 13.3 51 10.6 84 84 N 8 13 29.92 1013 10 16 0.00 0.00
6:53 am 06:53 Cloudy 59 15 51 10.6 75 75 Calm 29.91 1013 10 16 0.00 0.00
7:16 am 07:16 Partly Cloudy 61 16 52 11 72 72 ENE 3 6 29.90 1012 10 16 0.00 0.00
7:51 am 07:51 Cloudy 61 16 52 11 72 72 Calm 29.91 1013 10 16 0.00 0.00
7:53 am 07:53 Cloudy 60 15.6 52 11.1 75 75 VRB 3 6 29.92 1013 10 16 0.00 0.00
8:23 am 08:23 Mostly Cloudy 62 16.7 52 11.1 70 70 ESE 6 9 29.89 1012 10 16 0.00 0.00
8:53 am 08:53 Mostly Cloudy 62 16.7 53 11.7 73 73 S 6 9 29.95 1014 10 16 0.00 0.00
9:53 am 09:53 Cloudy 64 17.8 53 11.7 68 68 S 8 13 29.95 1014 10 16 0.00 0.00
10:17 am 10:17 Cloudy 65 18.3 53 11.7 66 66 S 9 15 29.88 1012 10 16 0.00 0.00
10:28 am 10:28 Cloudy 64 18 54 12 68 68 SSE 6 9 29.87 1011 10 16 0.00 0.00
10:53 am 10:53 Partly Cloudy 67 19.4 53 11.7 61 61 SE 9 15 29.92 1013 10 16 0.00 0.00
11:53 am 11:53 Mostly Sunny 71 21.7 52 11.1 51 51 VRB 6 9 29.88 1012 10 16 0.00 0.00
12:53 pm 12:53 Mostly Sunny 74 23.3 49 9.4 41 41 SE 6 9 29.84 1011 10 16 0.00 0.00
1:49 pm 13:49 Mostly Cloudy with Nearby Thunderstorms 72 22 48 9 44 44 NNE 6 9 29.69 1006 10 16 0.00 0.00
1:53 pm 13:53 Mostly Cloudy with Nearby Thunderstorms 71 21.7 49 9.4 46 46 NE 6 9 29.81 1010 10 16 0.00 0.00
2:22 pm 14:22 Mostly Cloudy with Light Rain 73 23 52 11 47 47 undefined N/A 29.69 1005 10 16 0.00 0.00
2:53 pm 14:53 Sunny 73 22.8 53 11.7 50 50 SE 8 13 29.82 1010 10 16 0.02 0.51
3:53 pm 15:53 Sunny 71 21.7 57 13.9 61 61 SSE 10 17 29.82 1010 10 16 0.00 0.00
4:53 pm 16:53 Sunny 68 20 50 10 53 53 NNE 23 37 29.88 1012 10 16 0.00 0.00
5:53 pm 17:53 Mostly Sunny 68 20 48 8.9 49 49 N 28 44 29.93 1013 10 16 0.00 0.00
6:53 pm 18:53 Sunny 62 16.7 45 7.2 54 54 NNE 12 19 29.96 1015 10 16 0.00 0.00
7:53 pm 19:53 Sunny 58 14.4 47 8.3 67 67 ENE 14 22 29.99 1016 10 16 0.00 0.00
8:53 pm 20:53 Clear 56 13.3 46 7.8 70 70 NNE 7 11 30.02 1017 10 16 0.00 0.00
9:53 pm 21:53 Clear 52 11.1 45 7.2 77 77 N 7 11 30.05 1018 10 16 0.00 0.00
10:53 pm 22:53 Clear 52 11.1 45 7.2 77 77 Calm 30.07 1018 10 16 0.00 0.00
11:53 pm 23:53 Clear 50 10 46 7.8 86 86 WNW 3 6 30.07 1018 10 16 0.00 0.00

Powered by AerisWeather